METEOR 2-20 DEB, 59998

Orbit data source: Space-Track

METEOR 2-20 DEB, 59998 is space debris in LEO originally from a launch on Fri, 28 Sep 1990 UTC launched from the Plesetsk Missile And Space Complex (PKMTR). Debris objects in space refer to the collection of defunct objects orbiting the Earth. Examples of debris include non-operational satellites, rocket bodies, and fragments generated from explosions, collisions, or faulty payload assembly.

Loading next visibility...
Identifier
59998, 1990-086H
Orbit
LEO
Country
Flag of CISCIS
Related business
Manufacturer
Unknown
Mission
Spacecraft
Bus & Motor
Unknown
Mass
Unknown
Launch date (UTC)
1990-09-28 (36 years ago)
Launch vehicle
Unknown
Launch site
Plesetsk Missile And Space Complex (PKMTR)
Object type
Payload
Rocket body
Debris
Shape & HBR
Unknown shape, 0.1 m
Radar Cross Section
Small (<0.1 m²)

Expand to show TLE details & history
Last TLE update: 3 days ago

TLE from 3 days ago
0 METEOR 2-20 DEB
1 59998U 90086H   26170.51406486  .00000852  00000-0  68296-3 0  9992
2 59998  82.5308 192.3797 0019071  20.3264 339.8654 13.89641993117797
Epoch: 2026-06-19T12:20Z
TLE epoch observation values (Epoch: 2026-06-19T12:20:15.203Z)
Latitude
-0.00006°
Longitude
99.5744°
Altitude
919.71 km
Speed
7.399 km/s
True Right ascension
12h 49m 31s
True Declination
0° 00' 00"
Sunlit
Object was in daylight at epoch
Visualization orbit readout
Latitude
Unknown
Longitude
Unknown
Altitude
Unknown
Speed
Unknown
Apparent Right ascension
Unknown
Apparent Declination
Unknown
Sunlit
N/A
Visualization observer readout
Local Sidereal Time
21:29:36
Azimuth
Unknown
Elevation
Unknown
Doppler factor
Unknown
Orbital elements
Apogee altitude
940.962 km
Perigee altitude
913.099 km
Semi-major axis
7,305.168 km
Eccentricity
0.00191
Inclination
82.5308°
RAAN
192.3797°
Arg. of periapsis
20.3264°
True anomaly
339.79°
Mean anomaly
339.8654°
Eccentric anomaly
339.82772°
Mean motion
3.47615 °/min
Orbital period
103.56 mins
BSTAR
0.00068296
Loading maneuver chart data...
Computing Atmospheric mass density...
Loading historical data...
Loading historical data...
Loading historical data...
Loading historical data...
Loading historical data...
Loading historical data...
Loading historical data...

Documentation

Showing up to 5 results
|